Regional Weather Roundup
Issued by NWS

Home | Current Version | Previous Version | Text Only | Print | Product List | Glossary On
Versions: 1 2 3 4 5 6 7 8 9 10 11 12 13 14 15 16 17 18 19 20 21 22 23 24 25 26 27 28 29 30 31 32 33 34 35 36 37 38 39 40 41 42 43 44 45 46 47 48 49 50
000
ASUS45 KPSR 222210
RWRAZ

ARIZONA REGIONAL HOURLY WEATHER ROUNDUP
NATIONAL WEATHER SERVICE PHOENIX AZ
300 PM MST WED OCT 22 2014

NOTE: FAIR INDICATES FEW OR NO CLOUDS BELOW 12,000 FEET WITH NO
SIGNIFICANT WEATHER AND/OR OBSTRUCTIONS TO VISIBILITY.

AZZ001>003-036-222300-
NORTHWEST ARIZONA

CITY           SKY/WX    TMP DP  RH WIND       PRES   REMARKS
BULLHEAD CITY  SUNNY     91  39  16 CALM      29.91F
KINGMAN        SUNNY     80  34  19 SW9       30.06S
$$

AZZ004>008-015-016-018-222300-
NORTH CENTRAL ARIZONA

CITY           SKY/WX    TMP DP  RH WIND       PRES   REMARKS
GRAND CANYON   SUNNY     67  30  25 VRB5      30.22F
PRESCOTT       MOSUNNY   76  38  25 VRB6      30.13F
FLAGSTAFF      SUNNY     65  36  34 S12G17    30.23S
PAYSON         SUNNY     72  39  30 S7        30.16S
PAGE           SUNNY     75  37  25 CALM      30.07F
$$

AZZ009>014-017-222300-
NORTHEAST ARIZONA

CITY           SKY/WX    TMP DP  RH WIND       PRES   REMARKS
WINSLOW        SUNNY     76  38  25 VRB3      30.11F
SAINT JOHNS    SUNNY     72  34  24 W7        30.15S
WINDOW ROCK    MOSUNNY   70  33  25 W7        30.20
SHOW LOW       MOSUNNY   64  39  39 W8        30.21F
$$

AZZ023-222300-
GREATER PHOENIX AREA

CITY           SKY/WX    TMP DP  RH WIND       PRES   REMARKS
PHOENIX        MOSUNNY   90  49  24 VRB3      29.89F
BUCKEYE          N/A     90  46  22 S5        29.91S
GLENDALE       MOSUNNY   88  52  29 CALM      29.92F
LUKE AFB       SUNNY     88  51  28 CALM      29.90F
DEER VALLEY    SUNNY     87  46  24 SW3       29.91F
SCOTTSDALE     SUNNY     88  48  25 S7        29.93F
MESA-FALCON    MOSUNNY   88  48  25 SW7       29.91
MESA-GATEWAY   MOSUNNY  N/A N/A N/A CALM      29.93F
CHANDLER       MOSUNNY   88  50  27 CALM      29.91F
$$

AZZ027-028-222300-
SOUTHWEST MARICOPA COUNTY AND PINAL COUNTY

CITY           SKY/WX    TMP DP  RH WIND       PRES   REMARKS
CASA GRANDE    SUNNY     88  46  23 CALM      29.93S
GILA BEND      CLEAR     91  41  17 VRB7      29.90F
$$

AZZ503-504-507>509-222300-
SOUTHEAST ARIZONA

CITY           SKY/WX    TMP DP  RH WIND       PRES   REMARKS
TUCSON         SUNNY     87  41  19 VRB3      29.98S
DAVIS-MONTHAN  SUNNY     86  43  22 VRB2      29.97S
RYAN FIELD       N/A     90  45  20 NE3       29.97S
NOGALES          N/A     82  46  28 MISG      30.03
SIERRA VISTA   MOSUNNY   79  41  25 NE5       30.09S
DOUGLAS        SUNNY     79  45  29 VRB3      30.06S
SAFFORD        SUNNY     80  48  32 VRB6      30.01S
$$

AZZ020-021-025-026-031-222300-
SOUTHWEST ARIZONA

CITY           SKY/WX    TMP DP  RH WIND       PRES   REMARKS
YUMA           MOSUNNY   95  43  16 E3        29.85S
$$

CAZ031-033-041-043-047-048-061-222300-
SOUTHERN CALIFORNIA

CITY           SKY/WX    TMP DP  RH WIND       PRES   REMARKS
DOWNTOWN L.A.  SUNNY     79  58  48 W3        29.89S
L.A. AIRPORT   MOSUNNY   73  61  65 W13       29.90F
SAN DIEGO      MOSUNNY   75  61  61 W10       29.91S
BURBANK        SUNNY     88  36  15 SE5       29.89F
ONTARIO        PTSUNNY   88  39  17 SW8       29.89F
RIVERSIDE      SUNNY     88  35  15 VRB5      29.88F
PALM SPRINGS   MOSUNNY   94  23   8 VRB7      29.88F
EL CENTRO NAS  MOSUNNY   92  46  20 CALM      29.84F
IMPERIAL       SUNNY     93  47  20 SE5       29.83F
BLYTHE         SUNNY     93  46  19 N5        29.87F
NEEDLES        SUNNY     92  42  17 CALM      29.91F
$$

NVZ020-UTZ003-222300-
SOUTHERN NEVADA-UTAH

CITY           SKY/WX    TMP DP  RH WIND       PRES   REMARKS
LAS VEGAS      MOSUNNY   82  26  13 SE6       29.96F
SALT LAKE CITY PTSUNNY   62  32  32 N7        30.16S
$$

NMZ009-TXZ055-222300-
NEW MEXICO-WEST TEXAS

CITY           SKY/WX    TMP DP  RH WIND       PRES   REMARKS
ALBUQUERQUE    PTSUNNY   71  40  32 VRB3      30.14S
EL PASO        MOSUNNY   75  52  44 CALM      30.07F
$$


........................KEY........................
SKY/WX - SKY CONDITION/WEATHER
TMP    - TEMPERATURE IN FAHRENHEIT
DP     - DEW POINT IN FAHRENHEIT
RH     - RELATIVE HUMIDITY IN PERCENT
WIND   - DIRECTION AND SPEED IN MILES PER HOUR (MPH)
VRB    - VARIABLE WIND DIRECTION
PRES   - MEAN SEA LEVEL PRESSURE IN INCHES OF MERCURY
         F - FALLING PRESSURE   R - RISING PRESSURE
         S - STEADY PRESSURE
VSB    - VISIBILITY IN MILES
HX     - HEAT INDEX IN FAHRENHEIT
WCI    - WIND CHILL INDEX IN FAHRENHEIT
TC     - TEMPERATURE IN CELSIUS WHICH IS ALSO KNOWN AS
         TEMPERATURE IN CENTIGRADE
AFB    - AIR FORCE BASE
         LUKE AFB IS LUKE AIR FORCE BASE
         DAVIS-MONTHAN IS DAVIS-MONTHAN AIR FORCE BASE
NAS    - NAVAL AIR STATION
         EL CENTRO NAS IS EL CENTRO NAVAL AIR STATION
N/A    - NOT AVAILABLE



USA.gov is the U.S. government's official web portal to all federal, state and local government web resources and services.